Regional Weather Roundup
Issued by NWS Sterling, VA

Home | Current Version | Previous Version | Graphics & Text | Print | Product List | Glossary On
Versions: 1 2 3 4 5 6 7 8 9 10 11 12 13 14 15 16 17 18 19 20 21 22 23 24 25 26 27 28 29 30 31 32 33 34 35 36 37 38 39 40 41 42 43 44 45 46 47 48 49 50
088
ASUS41 KLWX 270310
RWRLWX

REGIONAL WEATHER ROUNDUP
NATIONAL WEATHER SERVICE BALTIMORE MD/WASHINGTON DC
1100 PM EDT TUE JUL 26 2016

Note: "FAIR" indicates few or no clouds below 12,000 feet
with no significant weather and/or obstructions to visibility.
 TC=TEMPERATURE CELSIUS

 * =Non NWS site. Station does not report precipitation (e.g. rain,
    snow, etc.), thunder, or fog.

DCZ001-MDZ009-015-VAZ040>042-051-053>054-270400-
WASHINGTON METRO

CITY           SKY/WX    TMP DP  RH WIND       PRES   REMARKS
WASHINGTON NAT CLOUDY    85  71  63 SW8       29.94S HX  90
DULLES         MOCLDY    82  73  74 S7        29.95S
ANDREWS AFB    PTCLDY    83  69  62 W5        29.93F
FT BELVOIR     FAIR      82  71  69 VRB1      29.93F
QUANTICO       FAIR      81  77  88 W5        29.94F
COLLEGE PARK*  FAIR      77  72  83 CALM      29.93S
LEESBURG*      FAIR      81  77  89 SW9       29.95F
MANASSAS*      FAIR      81  75  83 CALM      29.95S
GAITHERSBURG*  CLOUDY    75  68  78 CALM      29.99S

$$

MDZ006>007-011-014-270400-
BALTIMORE METRO

CITY           SKY/WX    TMP DP  RH WIND       PRES   REMARKS
BWI AIRPORT    CLOUDY    80  71  74 SW3       29.93R
MD SCIENCE CTR   N/A     87  69  54 MISG      29.92F HX  91
MARTIN STATE   MOCLDY    81  77  89 CALM      29.93F
ANNAPOLIS      CLOUDY    82  76  81 CALM      29.92F
FORT MEADE*    CLOUDY    73  73 100 CALM      29.95F

$$

MDZ012-015-019>023-270400-
MARYLAND EASTERN SHORE

CITY           SKY/WX    TMP DP  RH WIND       PRES   REMARKS
OCEAN CITY     CLOUDY    77  75  93 CALM      29.94R
SALISBURY      CLOUDY    79  74  84 CALM      29.94R
BAY BRIDGE AP* CLOUDY    84  73  70 SW5       29.93S HX  91
CAMBRIDGE*     CLOUDY    79  75  89 CALM      29.93F

$$

MDZ017>025-270400-
SOUTHERN MARYLAND

CITY           SKY/WX    TMP DP  RH WIND       PRES   REMARKS
PATUXENT RIVER CLOUDY    82  77  84 SW6       29.93S HX  90
ST INIGOES     CLOUDY    83  78  85 S6        29.93F THUNDER HX  93
LEONARDTOWN*     N/A    N/A N/A N/A MISG        N/A

$$

MDZ003>005-270400-
NORTH CENTRAL MARYLAND

CITY           SKY/WX    TMP DP  RH WIND       PRES   REMARKS
FREDERICK*     CLOUDY    77  73  88 CALM      29.97S
HAGERSTOWN APT CLOUDY    83  62  49 CALM      29.96S

$$

MDZ501>502-270400-
WESTERN MARYLAND

CITY           SKY/WX    TMP DP  RH WIND       PRES   REMARKS
OAKLAND*       PTCLDY    68  68 100 SW3       30.12S
CUMBERLAND*    PTCLDY    79  66  65 CALM      30.02S

$$

VAZ025>031-270400-
SHENANDOAH VALLEY

CITY           SKY/WX    TMP DP  RH WIND       PRES   REMARKS
WINCHESTER*    FAIR      79  70  73 SW5       29.97S
FRONT ROYAL*   FAIR      77  72  83 SW3       29.96F
LURAY*         FAIR      73  73 100 CALM      30.00S
NEW MARKET*    FAIR     N/A N/A N/A CALM      29.98S
STAUNTON*      FAIR      72  72  98 SW3       30.05R FOG
WAYNESBORO*    FAIR      73  71  94 CALM      30.04R

$$

WVZ021-048>050-054>055-270400-
EASTERN WEST VIRGINIA PANHANDLE

CITY           SKY/WX    TMP DP  RH WIND       PRES   REMARKS
MARTINSBURG    FAIR      79  69  71 S3        29.95F
PETERSBURG*    FAIR      77  73  87 CALM      29.99S

$$

VAZ036>039-050-270400-
CENTRAL FOOTHILLS

CITY           SKY/WX    TMP DP  RH WIND       PRES   REMARKS
CHARLOTTESVILL MOCLDY    78  74  87 SE6       30.00R
CULPEPER*      FAIR      76  74  95 CALM      29.97F
ORANGE*          N/A     73  73 100 S6        30.01R
GORDONSVILLE*  MOCLDY    75  71  87 SW8       29.99F
WARRENTON*     FAIR      76  71  83 CALM      29.95F

$$

VAZ055>057-270400-
NORTH AND CENTRAL PIEDMONT

CITY           SKY/WX    TMP DP  RH WIND       PRES   REMARKS
FREDERICKSBRG* DRIZZLE   78  78 100 S3        29.94F
STAFFORD*      FAIR      78  73  86 CALM      29.98F

$$

NCZ024-NYZ072-PAZ021-071-VAZ022-071-270400-
OTHER REGIONAL OBSERVATIONS

CITY           SKY/WX    TMP DP  RH WIND       PRES   REMARKS
NEW YORK CITY  MOCLDY    82  60  47 CALM      29.95R
PHILADELPHIA   CLOUDY    83  73  72 W6        29.92F
PITTSBURGH     CLOUDY    76  58  53 N3        30.02R
ROANOKE        FAIR      78  73  84 N6        30.03S
RICHMOND       CLOUDY    77  73  87 NW13      29.97R THUNDER FOG
RALEIGH        TSTM      76  71  85 W13       30.00R FOG

$$

ANZ530>537-270400-
MARINE OBSERVATIONS

STATION/POSITION TIME  TEMP    WIND        PRES
                       AIR SEA DIR/SP/G
                 (UTC) (F)     (DEG/KT/KT) (MB)
THOMAS PT LIGHT  0300   85 84  230/  5/  5 1014.9S
BALT KEY BRIDGE  0248          220/  2/  3 1013.1
COVE POINT       0248          240/  6/  9 1014.0
LEWISETTA        0248      88  240/  7/  9 1013.3
SOLOMONS ISLAND  0248          220/  6/  7   N/A
PINEY POINT      0248          230/  7/  8   N/A

$$





USA.gov is the U.S. government's official web portal to all federal, state and local government web resources and services.